{"data":{"norad_id":66186,"epoch":"2026-05-24T16:00:39.556800Z","epoch_age_seconds":114242,"freshness":"FRESH","line1":"1 66186U 25243K   26144.66712450  .00015013  00000+0  51803-3 0  9990","line2":"2 66186  53.1570 252.5352 0001107  76.7032 283.4092 15.30197610 32284","mean_motion":15.3019761,"eccentricity":0.0001107,"inclination_deg":53.157,"raan_deg":252.5352,"arg_perigee_deg":76.7032,"mean_anomaly_deg":283.4092,"bstar":0.00051803,"rev_number":3228,"period_min":94.105492688621,"perigee_km":474.46353867376,"apogee_km":475.98087240186,"semimajor_km":6853.3592055378,"source":"CELESTRAK","updated_at":"2026-05-25T13:38:21.077309Z"}}